Regional Weather Roundup
Issued by NWS Sterling, VA

Home | Current Version | Previous Version | Text Only | Print | Product List | Glossary On
Versions: 1 2 3 4 5 6 7 8 9 10 11 12 13 14 15 16 17 18 19 20 21 22 23 24 25 26 27 28
000
ASUS41 KLWX 280910
RWRLWX

REGIONAL WEATHER ROUNDUP
NATIONAL WEATHER SERVICE BALTIMORE MD/WASHINGTON DC
500 AM EDT THU JUL 28 2016

Note: "FAIR" indicates few or no clouds below 12,000 feet
with no significant weather and/or obstructions to visibility.
 TC=TEMPERATURE CELSIUS

 * =Non NWS site. Station does not report precipitation (e.g. rain,
    snow, etc.), thunder, or fog.

DCZ001-MDZ009-015-VAZ040>042-051-053>054-281000-
WASHINGTON METRO

CITY           SKY/WX    TMP DP  RH WIND       PRES   REMARKS
WASHINGTON NAT CLOUDY    82  73  74 CALM      29.90S
DULLES         MOCLDY    75  70  84 SW3       29.91S
ANDREWS AFB    CLOUDY    78  74  89 CALM      29.90S
FT BELVOIR     FAIR      75  73  93 N1        29.89F
QUANTICO       FAIR      79  74  84 CALM      29.90F
COLLEGE PARK*  FAIR      73  72  94 CALM      29.89F
LEESBURG*      FAIR      77  73  88 SW7       29.92S
MANASSAS*      FAIR      75  73  94 CALM      29.90F
GAITHERSBURG*  PTCLDY    73  68  83 CALM      29.95S

$$

MDZ006>007-011-014-281000-
BALTIMORE METRO

CITY           SKY/WX    TMP DP  RH WIND       PRES   REMARKS
BWI AIRPORT    CLOUDY    77  72  84 CALM      29.89S
MD SCIENCE CTR   N/A     82  72  71 MISG      29.89S
MARTIN STATE   CLOUDY    77  77 100 CALM      29.90S
ANNAPOLIS      CLOUDY    80  76  87 CALM      29.88F
FORT MEADE*    CLOUDY    72  70  94 CALM      29.91F

$$

MDZ012-015-019>023-281000-
MARYLAND EASTERN SHORE

CITY           SKY/WX    TMP DP  RH WIND       PRES   REMARKS
OCEAN CITY     CLEAR    N/A N/A N/A CALM      29.90F
SALISBURY      PTCLDY    76  75  97 CALM      29.90F FOG
EASTON*        CLOUDY    79  78  98 CALM      29.93F

$$

MDZ017>025-281000-
SOUTHERN MARYLAND

CITY           SKY/WX    TMP DP  RH WIND       PRES   REMARKS
PATUXENT RIVER CLOUDY    77  74  90 SW6       29.89F
ST INIGOES     PTCLDY    80  77  90 SW5       29.89F
LEONARDTOWN*   PTCLDY    75  73  94 CALM      29.91

$$

MDZ003>005-281000-
NORTH CENTRAL MARYLAND

CITY           SKY/WX    TMP DP  RH WIND       PRES   REMARKS
FREDERICK*     PTCLDY    72  72 100 NE3       29.93F
HAGERSTOWN APT CLOUDY    75  69  81 SE3       29.93F

$$

MDZ501>502-281000-
WESTERN MARYLAND

CITY           SKY/WX    TMP DP  RH WIND       PRES   REMARKS
OAKLAND*       CLOUDY    68  68 100 SW3       30.05F FOG
CUMBERLAND*    CLOUDY    73  68  83 CALM      29.98F

$$

VAZ025>031-281000-
SHENANDOAH VALLEY

CITY           SKY/WX    TMP DP  RH WIND       PRES   REMARKS
WINCHESTER*    FAIR      73  72  94 CALM      29.92F
FRONT ROYAL*   FAIR      72  72 100 S5        29.92F
LURAY*         FAIR     N/A N/A N/A CALM      29.95F HAZE
NEW MARKET*    FAIR     N/A N/A N/A CALM      29.94S
STAUNTON*      FAIR      69  69  99 CALM      29.98S FOG
WAYNESBORO*    FAIR      70  69  96 CALM      29.98S

$$

WVZ021-048>050-054>055-281000-
EASTERN WEST VIRGINIA PANHANDLE

CITY           SKY/WX    TMP DP  RH WIND       PRES   REMARKS
MARTINSBURG    FAIR      70  68  93 CALM      29.91F
PETERSBURG*    FAIR      72  71  95 CALM      29.95S

$$

VAZ036>039-050-281000-
CENTRAL FOOTHILLS

CITY           SKY/WX    TMP DP  RH WIND       PRES   REMARKS
CHARLOTTESVILL FAIR      74  72  93 CALM      29.92S
CULPEPER*      FAIR      74  74 100 CALM      29.91F FOG
ORANGE*          N/A     73  73 100 CALM      29.93S
GORDONSVILLE*  FAIR      72  72 100 CALM      29.91S
WARRENTON*     FAIR      74  69  85 CALM      29.90S HAZE

$$

VAZ055>057-281000-
NORTH AND CENTRAL PIEDMONT

CITY           SKY/WX    TMP DP  RH WIND       PRES   REMARKS
FREDERICKSBRG* FAIR      75  75 100 CALM      29.89F
STAFFORD*      FAIR      73  71  95 CALM      29.94F FOG

$$

NCZ024-NYZ072-PAZ021-071-VAZ022-071-281000-
OTHER REGIONAL OBSERVATIONS

CITY           SKY/WX    TMP DP  RH WIND       PRES   REMARKS
NEW YORK CITY  CLEAR     78  71  79 CALM      29.93S
PHILADELPHIA   PTCLDY    76  72  87 CALM      29.91S
PITTSBURGH     MOCLDY    72  63  73 CALM      29.92F
ROANOKE        CLOUDY    76  73  91 N3        30.00R
RICHMOND       FAIR      75  73  93 CALM      29.91S
RALEIGH        PTCLDY    74  72  93 CALM      29.92F

$$

ANZ530>537-281000-
MARINE OBSERVATIONS

STATION/POSITION TIME  TEMP    WIND        PRES
                       AIR SEA DIR/SP/G
                 (UTC) (F)     (DEG/KT/KT) (MB)
THOMAS PT LIGHT  0900   82 85  340/  4/  5 1013.5F
BALT KEY BRIDGE  0848   81     170/  3/  3 1012.0F
COVE POINT       0848   79     230/  3/  4 1012.6F
LEWISETTA        0848   79 86  260/  4/  5 1011.9F
SOLOMONS ISLAND  0842   80 86  210/  5/  6   N/A
PINEY POINT      0848          270/  3/  4   N/A

$$





USA.gov is the U.S. government's official web portal to all federal, state and local government web resources and services.